This is the latest recevied weather packets stored in our database for station/object N4PWG. If no packets are shown the sender has not sent any weather packets the latest 10 day(s).
| Time | Temp. | Humidity | Pressure | Rain* | Wind** | Luminosity | Snow |
|---|---|---|---|---|---|---|---|
| 1777952765 | 18.33° C | 68% | 1026.6 hPa | 0 mm | - | 0 W/m² | - |
| 1777952462 | 17.78° C | 68% | 1026.5 hPa | 0 mm | - | 0 W/m² | - |
| 1777952159 | 18.33° C | 67% | 1026.6 hPa | 0 mm | - | 0 W/m² | - |
| 1777951858 | 18.33° C | 67% | 1026.6 hPa | 0 mm | - | 0 W/m² | - |
| 1777951555 | 18.33° C | 67% | 1026.7 hPa | 0 mm | - | 0 W/m² | - |
| 1777951251 | 18.89° C | 66% | 1026.6 hPa | 0 mm | - | 0 W/m² | - |
| 1777950949 | 18.89° C | 65% | 1026.3 hPa | 0 mm | - | 0 W/m² | - |
| 1777950645 | 18.89° C | 66% | 1026.5 hPa | 0 mm | - | 0 W/m² | - |
| 1777950342 | 18.89° C | 65% | 1026.5 hPa | 0 mm | - | 0 W/m² | - |
| 1777950038 | 18.89° C | 65% | 1026.3 hPa | 0 mm | - | 0 W/m² | - |
| 1777949733 | 19.44° C | 64% | 1026.3 hPa | 0 mm | - | 0 W/m² | - |
| 1777949433 | 19.44° C | 63% | 1026 hPa | 0 mm | - | 0 W/m² | - |
| 1777949130 | 19.44° C | 63% | 1025.9 hPa | 0 mm | - | 0 W/m² | - |
| 1777948827 | 20° C | 62% | 1026.2 hPa | 0 mm | - | 0 W/m² | - |
| 1777948524 | 20° C | 62% | 1026.1 hPa | 0 mm | - | 0 W/m² | - |
| 1777948221 | 20.56° C | 60% | 1026.1 hPa | 0 mm | - | 0 W/m² | - |
| 1777947919 | 21.11° C | 59% | 1025.6 hPa | 0 mm | - | 0 W/m² | - |
| 1777947616 | 21.11° C | 57% | 1025.5 hPa | 0 mm | - | 0 W/m² | - |
| 1777947312 | 21.11° C | 57% | 1025.6 hPa | 0 mm | - | 0 W/m² | - |
| 1777947009 | 21.67° C | 57% | 1025.4 hPa | 0 mm | - | 0 W/m² | - |
| 1777946709 | 21.67° C | 56% | 1025.5 hPa | 0 mm | - | 0 W/m² | - |
| 1777946406 | 21.67° C | 56% | 1025.6 hPa | 0 mm | - | 0 W/m² | - |
| 1777946103 | 21.67° C | 56% | 1025.4 hPa | 0 mm | - | 0 W/m² | - |
| 1777945800 | 21.67° C | 55% | 1025.4 hPa | 0 mm | - | 0 W/m² | - |
| 1777945497 | 21.67° C | 55% | 1025.2 hPa | 0 mm | - | 0 W/m² | - |
* Rain latest hour (hover to see other rain measurements)
** Current wind speed in m/s (hover to see current wind gust speed)